Terug naar catalogus

DELTA 1 DEB

ActiefSSO
NORAD 7083·DEBRIS·🇺🇸 United States

Gelanceerd Nov 6, 1973 vanaf Vandenberg Space Force Base

Loading…

Volgende Passages (komende 24 uur)

TLE

VersSource: Space-Track

Epoch: Sep 13, 2026, 23:28 UTC

1 07083U 73086CB  26256.97829778  .00000007  00000-0  43601-3 0  9994
2 07083 102.4484 271.5224 0067162  36.2123 353.3779 12.32628073374910

Volg DELTA 1 DEB in realtime met AllMySat

Download on the App Store